Таллахасси

США     30°26′33″N   84°17′13″W
темп.,
°C
ветер,
м/с
пор.,
м/с
влажн.,
%
обл.,
%
осадки,
мм/ч
давл.,
гПа
погр.,
м
17 октября, вс
вс1723:00+18с511480 0.0 1018667
02:00+15с411500 0.0 1019580
05:00+13с412544 0.0 1019532
08:00+12с411561 0.0 1020419
11:00+18ссв46430 0.0 1021731
14:00+22ссв45310 0.0 10191145
17:00+23ссв35310 0.0 10181272
20:00+16ссв22540 0.0 101933
18 октября, пн
пн1823:00+14св26550 0.0 1020104
02:00+13св23570 0.0 102161
05:00+11св226559 0.0 102136
08:00+11св2564100 0.0 1021115
11:00+18в3543100 0.0 1022473
14:00+23в2333100 0.0 10211249
17:00+23св2335100 0.0 10191264
20:00+16св24546 0.0 102056
19 октября, вт
вт1923:00+15св2453100 0.0 102179
02:00+15всв25615 0.0 1021112
05:00+13в23770 0.0 102258
08:00+13всв25760 0.0 102393
11:00+21в24440 0.0 1024518
14:00+26в22340 0.0 10221523
17:00+26всв23345 0.0 10201618
20:00+19св225844 0.0 102136
20 октября, ср
ср2023:00+17св24657 0.0 102277
02:00+16в2570100 0.0 102298
05:00+16в25835 0.0 1022111
08:00+15в248843 0.0 102381
11:00+24вюв2457100 0.0 1024558
14:00+27в224391 0.0 10221669
17:00+27св224298 0.0 10201774
20:00+21всв2463100 0.0 102165
21 октября, чт
чт2123:00+20в1162100 0.0 102113
02:00+19вюв1165100 0.0 102127
05:00+19вюв1172100 0.0 102024
08:00+18в1179100 0.0 102211
11:00+26ююв12605 0.0 1022667
14:00+30зсз114327 0.0 10202094
17:00+27ю325153 0.0 10181024
20:00+23ююз246989 0.0 1019140